This demonstration page uses our WeatherBlox Daily Observations layout. Learn more.

Left ArrowRight Arrow

39.01783, -85.05884

Hourly Observations for November 12, 2020

Temp ( °F °C ) Dew Point ( °F °C ) Humidity (%) Winds ( mph kmh ) Pressure ( in mb ) Visibility ( mi km ) Precip ( " mm )
12:52 am 00:52 Clear 37 2.8 32 0 82 82 N 8 13 30.12 1020 10 16.0934 0 0
1:52 am 01:52 Clear 36 2.2 31 -0.6 82 82 N 9 15 30.12 1020 9 14.48406 0 0
2:52 am 02:52 Clear 36 2.2 31 -0.6 82 82 NNE 8 13 30.13 1020 8 12.87472 0 0
3:52 am 03:52 Hazy 36 2.2 31 -0.6 82 82 NNE 8 13 30.14 1021 6 9.65604 0 0
4:52 am 04:52 Clear with Mist and Fog 35 1.7 31 -0.6 85 85 NNE 8 13 30.14 1021 6 9.65604 0 0
5:52 am 05:52 Hazy 35 1.7 30 -1.1 82 82 NNE 9 15 30.16 1021 6 9.65604 0 0
6:52 am 06:52 Clear 35 1.7 30 -1.1 82 82 NNE 12 19 30.16 1021 7 11.26538 0 0
7:52 am 07:52 Sunny with Mist and Fog 35 1.7 30 -1.1 82 82 NNE 13 20 30.17 1022 6 9.65604 0 0
8:52 am 08:52 Sunny 38 3.3 31 -0.6 76 76 NE 15 24 30.17 1022 7 11.26538 0 0
9:52 am 09:52 Sunny 41 5 33 0.6 73 73 ENE 13 20 30.17 1022 9 14.48406 0 0
10:52 am 10:52 Sunny 44 6.7 32 0 63 63 ENE 10 17 30.16 1021 10 16.0934 0 0
11:52 am 11:52 Sunny 48 8.9 32 0 54 54 NE 8 13 30.14 1021 10 16.0934 0 0
12:52 pm 12:52 Sunny 50 10 32 0 50 50 VRB 3 6 30.11 1020 10 16.0934 0 0
1:52 pm 13:52 Sunny 52 11.1 32 0 47 47 NE 6 9 30.08 1019 10 16.0934 0 0
2:52 pm 14:52 Sunny 54 12.2 31 -0.6 42 42 VRB 5 7 30.06 1018 10 16.0934 0 0
3:52 pm 15:52 Sunny 55 12.8 31 -0.6 40 40 Calm 30.05 1018 10 16.0934 0 0
4:52 pm 16:52 Sunny 53 11.7 31 -0.6 43 43 NNW 5 7 30.05 1018 10 16.0934 0 0
5:52 pm 17:52 Clear 48 8.9 33 0.6 56 56 NW 7 11 30.05 1018 10 16.0934 0 0
6:52 pm 18:52 Clear 47 8.3 32 0 56 56 NNW 7 11 30.07 1018 10 16.0934 0 0
7:52 pm 19:52 Clear 45 7.2 32 0 61 61 N 5 7 30.07 1018 10 16.0934 0 0
8:52 pm 20:52 Clear 44 6.7 32 0 63 63 Calm 30.07 1018 10 16.0934 0 0
9:52 pm 21:52 Clear 44 6.7 32 0 63 63 Calm 30.04 1017 10 16.0934 0 0
10:52 pm 22:52 Clear 41 5 32 0 70 70 SE 3 6 30.03 1017 10 16.0934 0 0
11:52 pm 23:52 Clear 42 5.6 33 0.6 71 71 Calm 30.01 1016 10 16.0934 0 0

Powered by AerisWeather